Location: Stockholm
(59.3330°N, 18.0500°E)
Time: 13:47:40
(UTC+01:00)

Envisat - Pass Details

Date: 05 December 2022
Orbit: 763 x 765 km, 98.2° (Epoch: 29 January)

Event Time Altitude Azimuth Distance (km) Brightness Sun altitude
Rises 07:19:40 0° 17° (NNE) 3,250 6.1 -7.2°
Reaches altitude 10° 07:23:27 10° 348° (NNW) 2,319 5.1 -6.8°
Maximum altitude 07:25:22 12° 326° (NW) 2,170 4.8 -6.6°
Drops below altitude 10° 07:27:16 10° 304° (WNW) 2,316 4.8 -6.4°
Enters shadow 07:28:47 - 289° (WNW) 2,611 5.1 -6.2°
